SCP
0 1 1 1 1 2 1 1 0 0 1 1 1 1 1 2 2 2 2 4 5 4 3 3 2 2 1 1 1 0 0 0 0 0 0 0 0 0 0 0 0 0 0 0 0 0 0 0 0
0 0 1 1 1 1 1 0 1 1 1 1 1 1 1 2 2 2 2 4 4 3 2 2 2 2 1 1 1 1 0 0 0 0 0 0 0 0 0 0 0 0 0 0 0 0 0 0 0
0 0 0 1 1 1 0 0 1 1 1 1 1 1 2 3 3 2 2 3 4 4 3 2 2 2 2 1 1 1 1 1 1 1 1 0 0 0 0 0 0 0 0 0 0 0 0 0 0
0 0 0 0 0 0 0 1 1 1 1 1 1 2 3 4 3 3 2 4 5 5 3 2 2 2 2 2 1 1 1 1 1 1 1 0 0 0 0 0 0 0 0 0 0 0 0 0 0
0 0 0 0 0 0 0 1 1 1 1 1 2 3 4 4 4 3 3 5 7 6 4 3 2 2 2 2 2 1 1 1 1 1 1 0 0 0 0 0 0 0 0 0 0 0 0 0 0
0 0 0 0 0 0 0 0 1 1 1 1 2 4 4 4 4 4 4 6 8 7 5 4 3 2 2 2 2 2 1 1 1 1 1 0 0 0 0 0 0 0 0 0 0 0 0 0 0
0 0 0 0 0 0 0 0 1 2 2 2 3 5 5 4 4 6 7 8 9 7 5 4 3 2 2 2 2 2 1 1 1 1 1 0 0 0 0 0 1 1 0 0 0 0 0 0 0
0 0 0 0 0 0 0 1 1 2 3 3 4 6 6 4 4 6 8 9 8 7 5 4 3 2 2 2 2 1 1 1 1 1 1 1 1 0 1 1 1 1 0 0 0 0 0 0 0
0 0 0 0 0 0 1 1 2 3 3 4 5 7 6 4 4 6 8 8 7 6 4 4 3 2 2 1 1 1 1 1 1 1 1 1 1 1 1 1 1 1 1 0 0 0 0 0 0
0 0 0 0 0 1 1 2 2 3 4 5 7 7 5 4 4 5 6 7 7 6 5 5 4 3 2 2 2 1 1 1 1 1 1 1 1 1 1 1 2 1 1 0 0 0 0 0 0
0 0 0 0 0 1 1 2 2 3 4 5 6 6 4 4 4 6 6 6 7 6 5 5 5 4 3 3 2 2 2 1 1 1 1 1 1 1 1 2 2 2 1 1 1 1 0 0 0
0 0 0 0 0 1 1 1 2 2 3 3 4 5 5 6 8 9 8 8 8 7 6 6 5 5 5 4 3 2 2 2 1 1 1 1 1 2 2 2 2 2 1 1 1 1 1 1 1
0 0 0 0 0 1 1 1 2 2 2 2 3 5 6 9 11 11 10 10 10 9 8 7 7 7 7 6 4 3 2 2 2 2 2 2 2 2 2 2 1 1 1 1 1 1 1 1 1
0 0 0 0 1 1 1 1 1 2 3 3 4 6 8 10 11 11 10 11 10 9 9 9 8 8 8 6 4 3 3 3 3 3 3 2 2 2 2 1 1 1 1 1 1 1 1 1 1
0 0 0 0 1 1 0 1 2 2 3 3 5 8 10 10 10 9 10 10 10 9 9 9 8 7 7 6 4 4 4 3 3 3 2 2 2 2 2 1 1 1 1 1 1 1 1 1 1
0 0 0 0 1 0 0 1 2 3 3 4 7 10 10 9 9 9 10 10 10 9 9 8 7 6 5 5 4 4 4 4 3 2 2 1 1 1 1 1 1 1 1 1 1 1 1 1 1
0 0 0 0 0 0 1 2 2 3 3 5 8 9 8 7 8 10 11 11 10 9 9 8 6 5 5 4 5 5 5 4 3 2 1 1 1 1 1 1 1 1 1 1 1 1 1 1 1
0 0 0 0 0 0 1 2 3 2 3 5 8 8 6 5 6 8 10 10 9 8 7 7 6 5 5 5 5 5 5 4 3 2 1 1 1 1 1 1 1 1 1 1 1 1 1 1 1
0 0 0 0 0 0 1 1 2 2 3 5 7 7 6 5 5 7 8 8 8 7 7 6 6 5 5 4 4 4 3 3 2 2 1 1 1 1 0 0 0 1 1 1 1 1 0 0 0
0 0 0 0 0 0 1 1 1 2 2 4 6 6 6 5 6 8 9 8 8 7 7 7 6 6 5 4 4 3 2 2 1 1 1 1 1 1 0 0 0 0 0 0 0 0 0 0 0
0 0 0 0 0 0 1 1 1 2 2 4 5 6 6 6 7 8 9 9 8 7 7 6 6 6 5 4 4 3 2 1 1 1 1 1 1 0 0 0 0 0 0 0 0 0 0 0 0
0 0 0 0 0 0 1 1 1 2 2 3 4 5 6 6 7 8 8 8 6 5 5 5 5 6 5 5 4 3 2 2 1 1 1 1 1 0 0 0 0 0 0 0 0 0 0 0 0
0 0 0 0 0 0 1 1 1 2 3 4 5 6 5 5 5 7 7 6 5 4 4 5 6 6 6 5 5 4 2 1 2 2 2 1 1 0 0 0 0 0 0 0 0 0 0 0 0
0 0 0 0 0 1 1 1 1 2 3 4 6 6 5 4 4 5 6 5 4 4 4 5 7 7 7 6 5 4 2 2 2 2 1 1 0 0 0 0 0 0 0 0 0 0 0 0 0
0 0 0 0 1 1 1 1 1 1 2 4 7 7 4 3 3 5 5 5 4 4 4 5 6 6 6 5 4 3 3 2 1 1 1 1 0 0 0 0 0 0 0 0 0 0 0 0 0
0 0 0 0 0 0 1 1 1 1 2 4 6 5 3 2 3 4 5 5 5 4 4 5 5 4 4 3 3 3 3 2 1 1 1 1 0 0 0 0 0 0 0 0 0 0 0 0 1
0 0 1 1 0 0 1 1 1 1 1 3 4 3 2 1 2 3 5 6 6 5 4 4 4 3 3 3 2 2 2 2 1 1 1 1 1 1 1 0 0 0 0 0 0 0 1 1 1
0 0 1 1 1 0 0 1 1 1 1 2 2 1 1 1 1 3 5 6 6 5 4 4 3 3 3 2 2 2 2 2 1 1 1 1 1 1 1 1 1 1 1 1 1 1 1 1 1
0 1 1 1 1 0 0 1 1 1 1 1 1 1 1 1 1 2 5 7 7 6 5 4 3 3 3 2 2 2 2 2 1 2 2 1 1 1 1 1 1 1 1 1 1 1 0 1 1
0 1 1 1 1 0 0 0 1 1 1 1 1 1 1 1 1 2 5 7 8 7 6 4 3 3 3 2 2 2 2 2 1 2 2 1 1 1 1 1 1 1 1 1 1 0 0 0 0
Wind_Speed
9 12 11 9 7 7 8 8 6 6 7 8 7 7 10 11 8 10 10 18 24 21 18 17 16 16 15 14 14 13 13 12 12 12 12 12 11 11 11 11 11 11 11 11 11 12 11 11 11
11 14 11 8 9 8 6 4 4 6 8 6 5 7 10 12 13 13 13 19 23 20 17 16 17 16 15 15 14 13 13 12 12 11 11 11 11 11 11 11 11 11 11 11 11 11 11 11 10
13 18 10 9 13 10 5 1 2 4 6 4 4 7 8 9 11 12 15 20 21 19 17 18 18 17 16 15 14 13 12 12 11 11 11 10 10 10 10 10 10 10 10 10 10 10 11 10 9
9 10 8 10 14 11 6 2 3 2 3 3 3 8 9 8 9 14 17 19 20 20 19 18 17 17 16 15 14 13 12 12 11 11 10 10 10 10 10 10 9 9 9 9 9 9 9 9 7
11 9 12 14 16 10 4 3 2 1 0 2 4 11 10 7 13 16 17 19 19 20 19 18 17 16 15 14 14 13 12 11 11 10 9 9 8 8 8 9 9 9 8 8 8 8 8 7 6
9 10 13 13 12 7 3 2 3 1 1 2 6 11 8 9 13 15 15 16 19 20 19 17 17 16 15 14 13 13 12 11 10 9 9 8 8 8 7 7 8 8 8 7 7 7 7 6 4
11 12 15 17 13 6 0 2 3 3 2 1 5 11 9 10 11 13 13 14 18 20 18 15 15 14 14 14 13 12 11 11 10 9 9 8 8 7 7 7 7 7 7 6 6 6 5 5 3
11 12 17 16 11 5 3 1 1 2 1 4 5 8 11 11 11 14 13 14 17 17 16 15 14 12 12 12 13 12 11 10 10 9 9 8 8 7 7 7 7 7 6 5 5 5 4 4 2
14 12 13 12 8 4 2 1 1 1 1 3 7 11 17 15 13 13 12 14 14 15 13 14 14 12 11 12 13 12 11 10 9 8 8 7 5 6 5 7 8 7 6 5 4 4 4 4 4
11 11 12 9 9 8 5 3 2 1 1 4 10 14 18 16 13 13 13 15 14 14 13 11 12 11 10 9 9 7 7 7 5 4 5 3 2 2 5 8 8 6 6 5 5 5 5 5 4
11 12 10 9 7 7 7 5 3 3 3 4 9 12 14 15 13 12 11 12 13 12 11 12 10 7 8 7 7 4 4 4 4 5 4 2 2 2 4 3 4 3 4 3 4 5 3 3 2
11 10 9 8 6 6 6 4 3 2 3 4 7 11 11 12 13 12 11 11 12 11 11 11 9 6 6 6 4 5 5 4 4 4 3 2 2 2 2 2 2 1 1 2 2 2 2 1 1
10 10 9 8 6 5 5 3 3 2 3 4 7 10 11 12 11 11 10 11 11 10 10 10 8 6 6 5 3 4 4 4 4 3 2 2 2 2 2 1 1 1 1 1 1 0 1 1 1
9 9 9 8 7 5 5 3 1 3 2 4 6 7 9 9 10 11 10 10 10 10 11 10 9 7 6 5 3 3 4 3 4 3 3 2 2 2 2 2 1 1 1 1 1 2 1 1 1
10 11 10 9 7 5 4 3 3 2 4 5 6 8 9 8 9 10 10 10 11 10 11 10 9 8 6 5 4 3 3 4 4 4 4 3 3 3 2 1 1 1 0 1 1 1 1 2 2
12 12 10 9 9 6 4 3 5 7 6 6 6 8 9 7 8 9 10 9 9 10 10 9 9 9 7 5 3 3 3 4 4 4 3 3 3 2 1 2 2 0 0 1 0 0 0 0 1
11 10 11 9 9 5 5 4 6 8 8 7 7 7 9 9 8 10 11 11 11 10 9 8 8 9 8 6 4 4 3 3 3 4 3 3 3 2 2 2 2 0 1 1 1 2 1 1 1
9 9 10 6 5 5 5 4 8 8 7 8 8 8 8 10 9 10 10 11 11 10 9 8 8 8 8 5 4 3 4 3 3 4 4 4 2 3 2 3 2 1 2 2 2 1 0 1 1
11 10 9 4 1 5 6 6 8 8 7 7 8 8 8 9 9 10 11 11 12 10 10 9 8 7 6 5 4 4 4 3 3 4 5 4 3 3 2 3 2 2 2 2 2 2 2 1 0
11 11 9 5 4 7 6 7 7 7 8 7 8 9 10 11 10 11 12 11 12 12 10 9 8 8 6 5 3 3 4 3 4 4 4 4 3 2 3 3 1 2 2 2 2 2 2 2 1
12 10 9 9 7 8 8 7 6 7 7 8 9 9 10 12 13 12 13 12 13 12 12 10 9 8 6 6 4 4 3 3 4 5 3 3 3 3 3 2 2 2 1 1 1 2 2 2 2
11 10 10 10 10 7 7 5 6 9 9 10 10 10 11 12 12 12 13 13 12 12 11 9 9 8 6 5 5 6 5 3 5 4 4 4 2 3 3 3 2 2 2 2 2 3 3 3 2
11 10 11 12 11 8 4 4 5 10 11 11 12 12 11 12 13 13 13 13 12 12 11 10 9 7 6 5 5 4 4 4 4 5 5 4 3 2 3 4 3 1 2 3 3 3 3 3 3
10 10 9 8 7 6 7 7 5 9 12 13 14 14 13 13 14 13 13 13 12 12 12 11 9 8 7 6 6 4 4 4 6 5 5 4 4 3 3 4 3 2 2 3 2 2 2 2 3
10 8 4 3 1 6 10 6 5 8 10 13 15 15 15 14 14 14 15 14 13 13 13 12 11 9 8 7 6 5 5 5 5 5 4 3 4 4 4 4 2 2 2 2 1 1 2 2 3
11 10 6 5 5 5 6 4 6 8 9 13 15 15 15 15 14 15 15 14 14 14 13 13 11 10 9 7 6 6 6 5 4 3 3 2 2 5 5 4 3 2 1 1 2 1 0 1 1
11 10 8 8 12 8 1 2 5 8 11 13 15 16 16 16 17 17 17 16 14 14 13 14 12 10 9 8 7 6 5 3 5 4 2 3 3 5 5 3 3 2 2 1 1 0 1 1 1
12 10 6 6 6 6 3 1 2 6 10 14 15 16 16 16 17 17 16 15 14 14 13 14 13 11 10 9 8 8 5 5 5 4 3 3 3 4 4 3 2 2 2 1 0 2 1 1 1
9 10 6 5 7 6 2 1 4 9 9 13 15 16 16 17 17 16 15 15 14 14 14 13 13 12 10 9 7 7 7 6 6 4 4 4 4 4 3 3 2 2 2 2 1 2 1 1 1
10 9 8 6 6 8 3 2 5 8 9 12 14 16 17 17 16 17 16 16 15 14 14 13 14 13 11 9 8 7 7 7 7 6 5 5 4 4 4 3 2 2 3 2 2 3 1 1 2
Wind_Direction
232 245 241 249 248 249 275 292 332 44 58 57 49 52 68 64 71 100 124 121 117 121 127 130 130 132 131 129 127 125 123 121 117 113 109 104 101 97 94 91 91 90 89 88 87 88 87 86 88
254 251 245 248 255 262 266 278 344 52 70 71 71 69 75 80 89 114 125 119 120 125 133 131 131 131 131 130 129 127 126 124 121 117 113 108 104 100 96 94 93 93 92 91 91 91 90 90 91
260 263 262 253 258 267 276 306 47 70 86 80 80 77 75 84 96 116 125 126 125 128 125 128 134 132 132 131 130 129 128 126 123 120 116 112 108 103 98 96 95 94 94 93 93 93 93 92 92
250 244 241 257 267 277 289 356 71 60 97 112 102 92 75 80 107 123 134 131 127 128 126 131 134 133 132 132 131 131 131 129 126 123 121 117 114 110 106 102 99 96 95 95 96 97 96 94 93
244 257 248 256 266 278 293 343 27 355 189 121 105 96 90 95 114 129 139 134 133 127 126 133 135 134 134 133 133 133 133 131 129 127 124 121 117 114 109 106 105 102 99 99 100 101 99 96 92
250 251 259 266 269 257 261 10 332 305 263 117 118 108 100 122 125 138 140 137 130 126 127 131 135 136 137 137 136 136 135 134 134 133 131 129 125 119 116 113 112 111 107 104 105 108 107 101 93
256 270 277 279 285 282 252 40 326 359 335 49 90 99 123 133 134 138 136 136 127 125 129 137 139 139 139 138 139 140 140 140 139 138 137 138 136 133 128 124 122 120 116 114 116 120 119 114 104
255 275 279 279 281 294 71 67 289 307 345 80 93 112 140 141 147 141 142 128 125 127 135 140 142 143 147 145 145 144 144 145 144 144 146 147 148 148 144 142 131 130 128 129 132 139 142 142 150
250 260 271 287 307 344 61 306 275 120 62 69 79 104 131 147 155 147 141 128 127 129 135 141 142 150 153 150 146 150 152 152 154 155 159 163 166 157 154 130 137 142 144 149 156 166 176 184 196
240 255 272 303 326 336 342 326 316 263 157 100 93 102 131 152 160 154 149 142 136 132 137 136 140 149 151 147 143 156 157 150 166 152 162 174 154 140 131 138 150 156 162 169 179 194 207 219 207
242 256 286 304 321 328 323 340 345 323 23 59 112 131 147 157 156 154 151 141 134 134 136 132 133 136 137 130 147 143 141 142 163 150 157 158 146 126 115 139 149 164 178 184 176 198 225 226 213
250 264 281 295 320 304 303 307 320 43 82 87 119 137 153 161 158 156 147 138 136 136 132 128 131 124 115 122 135 141 138 150 152 143 151 141 117 105 107 116 134 157 168 166 164 192 203 262 285
246 256 259 265 266 269 293 300 311 33 86 109 119 145 152 154 149 142 141 141 138 134 128 125 126 123 113 109 127 125 119 131 127 128 114 115 117 105 109 103 121 139 170 162 165 176 185 249 285
272 271 269 264 256 254 261 256 210 83 120 127 129 133 136 147 151 141 144 142 140 137 130 126 127 122 113 110 106 110 117 119 117 115 119 116 113 100 108 136 135 99 103 137 172 172 169 196 228
264 267 265 259 249 240 271 281 87 141 176 158 147 133 127 135 143 142 146 146 147 140 132 132 135 134 128 129 143 131 136 129 116 118 120 125 119 121 138 137 108 65 108 145 135 186 170 202 205
267 260 263 262 242 208 224 258 158 188 191 161 147 141 135 130 145 143 143 142 139 140 137 143 145 138 136 136 141 126 117 115 123 126 121 116 117 129 134 112 92 360 216 94 134 39 101 231 213
263 263 262 247 231 221 218 211 179 186 178 163 157 151 143 147 158 147 150 147 146 146 142 143 135 142 142 142 135 118 110 115 125 123 120 120 121 111 88 81 83 265 80 55 32 68 17 318 314
256 253 253 245 206 224 240 208 176 187 181 170 161 157 151 156 166 155 151 148 145 145 141 140 139 141 143 139 135 129 128 132 129 116 120 121 106 91 92 100 68 56 65 55 44 15 317 281 284
277 285 292 325 316 264 241 213 195 190 184 170 165 163 161 157 160 154 157 153 148 144 144 146 148 145 143 148 154 147 146 150 133 123 118 121 115 98 69 91 92 67 76 53 32 0 316 274 311
275 282 291 294 263 266 264 241 205 188 180 168 167 169 167 159 158 157 157 155 153 150 151 149 149 150 152 151 142 141 131 137 118 107 120 125 119 116 115 80 88 75 99 68 18 15 341 337 18
267 275 286 282 265 252 261 253 212 181 168 159 164 168 166 165 163 162 162 159 156 155 159 156 152 151 153 152 145 130 128 142 133 136 142 130 122 105 73 89 59 20 67 89 28 11 359 342 330
266 275 281 280 276 267 251 257 216 181 175 174 169 168 166 164 160 161 162 161 159 157 155 147 145 145 146 153 149 153 159 151 141 138 129 129 122 131 130 112 90 36 34 52 28 54 349 338 338
269 277 283 289 291 285 271 255 223 189 188 182 171 169 171 164 160 160 157 155 154 153 152 147 142 144 148 154 147 159 150 144 132 121 125 130 128 134 122 111 101 74 62 62 44 37 8 357 7
267 274 289 318 325 295 261 247 211 190 193 180 170 168 167 163 160 155 153 153 155 155 154 149 147 148 152 158 146 148 135 129 127 133 144 162 149 138 122 121 109 94 82 79 62 24 20 25 15
256 263 282 306 295 260 256 245 182 183 174 166 165 165 164 164 160 157 156 158 160 160 155 151 152 155 160 159 151 148 137 134 139 152 160 181 152 134 114 109 107 94 91 93 74 64 36 28 13
240 246 246 259 251 249 238 236 147 146 140 148 155 159 161 161 160 162 161 161 164 160 154 152 154 158 161 157 150 149 151 164 159 157 148 165 107 117 130 127 134 125 113 89 84 339 175 93 349
241 245 248 255 270 277 233 130 107 131 144 148 155 160 164 164 164 165 165 166 167 163 160 158 158 160 160 156 151 154 162 149 127 129 147 126 109 131 129 135 138 133 121 76 51 298 20 50 335
248 252 254 267 288 288 305 6 188 180 169 161 164 165 165 167 167 166 167 168 167 164 162 159 160 161 160 157 162 160 158 139 132 146 130 107 104 100 130 143 146 145 144 150 246 279 169 202 245
252 253 264 275 278 293 303 302 209 208 193 170 167 165 166 169 170 168 168 167 166 166 164 162 162 163 166 167 169 153 157 152 152 156 147 137 138 138 153 163 165 168 178 172 209 265 241 235 285
266 257 252 251 277 290 287 208 244 198 191 174 165 165 167 170 171 168 168 167 168 167 167 166 164 167 170 167 164 160 162 162 165 166 158 154 158 167 172 171 181 208 187 184 219 260 277 273 274